CAPE
3 640 1151 1505 1554 417 89 134 134 112 72 85 153 62 185 313 230 355 33 13 12 60 339 447 821 603 1256 1231 1568 1200 1436 1733 1750 1571 1752 1619 1644 1602 1693 1680 1837 1808 1715 1650 1867 1897 1993 2022 1987
451 935 1375 1918 652 37 132 108 149 139 110 59 229 272 244 352 84 34 8 73 67 77 218 422 1049 889 1512 1335 1674 1448 1467 1666 1816 1829 1857 1852 1850 1696 1849 1583 1473 1522 1560 1515 1630 1979 2015 1797 1735
990 1011 2183 1136 196 83 184 135 146 164 142 129 128 188 302 212 142 69 41 166 275 470 653 672 1172 1065 1676 1533 1785 1516 1598 1734 1805 1614 1556 1531 1762 1768 1982 1683 1633 1618 1778 1842 1800 1801 1960 1891 1673
838 1468 1577 964 101 146 160 148 151 161 269 261 115 162 225 232 335 245 385 349 363 514 564 1200 1413 1556 1836 1745 1687 1681 1600 1550 1560 2000 1842 1771 1441 1384 1848 1846 1789 1848 1919 2029 2504 1929 1799 2109 1737
627 727 1036 146 118 237 164 140 125 185 340 226 100 159 325 273 272 310 506 512 653 784 614 1065 1646 1827 1874 1905 1767 1635 1701 1882 1983 2003 1943 1810 1662 1882 1702 1730 1842 1885 2033 2104 2078 1728 1437 1150 1091
735 600 250 245 181 256 181 212 225 210 459 390 105 349 447 285 299 371 531 462 608 823 681 929 1906 1841 1971 1953 1843 1826 1835 1806 1836 1865 1857 1823 1939 2159 1556 1502 1748 1731 1785 1838 2175 1995 1892 1627 882
552 849 67 107 250 460 339 296 208 150 296 320 193 488 323 331 385 514 645 497 461 765 357 557 1039 1796 1911 1942 1916 1999 1921 1936 1909 1999 2102 2003 1800 1731 1355 1233 1510 1563 1676 1704 1824 1970 1963 2082 1722
557 785 200 94 219 330 313 335 162 171 243 154 267 479 447 506 505 640 700 442 343 548 464 510 633 1034 1314 1757 1749 1967 1985 1950 1975 2008 1950 1957 1500 1252 1240 1912 1283 1303 1408 1587 1673 1806 1815 1918 2106
503 674 306 108 153 408 368 402 428 208 169 147 381 276 529 491 576 611 487 319 302 519 444 1343 1276 1593 1727 1540 1869 1951 1945 2146 1943 1838 1999 2201 1364 1395 1379 2074 1570 1344 1105 1229 1376 1574 1620 1728 1941
680 580 449 792 285 294 345 335 200 120 173 278 286 534 561 591 583 585 310 367 466 658 817 663 964 1048 1598 1424 1891 1496 1404 1784 969 741 1398 1494 2113 1178 964 1499 1804 1734 1790 2098 2043 1772 1802 1884 2095
744 751 522 309 609 254 322 400 165 61 235 253 361 577 527 636 548 285 358 292 521 940 733 1256 1352 1422 1380 1797 1592 1479 1206 719 849 1028 2446 1732 1364 1809 1705 1626 1867 1468 1827 1136 1282 1390 1550 1205 1183
766 726 341 330 523 252 278 108 91 373 199 249 414 454 406 590 292 194 381 329 546 856 848 870 1188 2247 1703 1608 1456 1290 1088 428 580 1401 1707 1861 1291 1382 1574 1091 1334 1381 966 1749 1956 1315 1688 1513 1577
670 723 551 326 537 474 468 145 64 276 82 219 259 294 486 494 323 323 349 253 524 766 794 930 1229 1789 1857 1083 631 910 834 573 1028 1554 1831 1395 1126 1090 1200 1655 1823 1533 1440 1186 1347 1709 1674 1264 889
689 805 526 215 674 485 406 377 322 111 81 238 256 157 130 172 385 467 346 278 422 655 893 1118 1262 1493 1458 1179 1000 843 1451 670 670 900 1602 1630 936 1416 1638 1745 1504 1438 1411 1325 1488 2012 1584 844 537
806 847 567 303 138 715 607 419 202 212 110 104 144 206 264 318 421 391 416 487 610 591 886 1031 1317 1451 1859 1602 1267 1189 715 750 770 1331 1661 1602 1657 2166 3987 1326 2901 1449 1739 2160 1889 1973 1398 602 571
646 551 244 182 219 252 634 231 622 381 173 64 72 186 373 224 305 541 482 486 653 689 851 1004 994 1236 1287 1401 1317 1381 1732 983 2108 1577 1353 1609 2192 2276 2856 1897 2264 1499 2442 1961 1598 1564 1137 554 640
410 314 401 568 532 196 238 208 526 436 239 72 69 128 267 363 292 544 539 461 489 707 833 988 1329 1319 1340 1409 1711 1988 1543 1984 1867 1157 1253 1854 1760 1905 3161 1784 2223 3012 2223 2008 1040 1030 965 813 593
0 16 214 419 555 446 127 76 341 336 285 155 69 93 246 233 307 360 438 386 281 764 855 927 1025 2140 1395 1278 1879 2052 1280 1662 960 2110 1674 1845 1734 1816 3167 1289 2675 1758 1788 1760 2744 3183 1480 1400 703
0 106 420 328 302 240 73 46 114 377 397 96 101 124 137 177 285 198 335 409 305 649 921 1253 2162 1580 1479 1328 1299 1506 1321 1699 1244 1025 1784 1799 1568 1902 2354 2030 1790 1948 2773 3829 2468 2428 2520 1620 1725
11 60 306 308 250 135 1 68 139 417 397 416 155 64 91 180 246 172 259 282 395 535 866 1132 1741 1978 1949 2104 2185 1779 1505 972 1228 1555 1468 1643 1536 1837 2041 2411 1945 2599 2514 2904 3058 3227 3485 1550 1689
38 131 40 92 286 225 47 31 83 474 640 592 124 171 150 121 161 349 279 229 340 447 720 1099 1343 1755 1849 2213 1674 1657 2455 2342 1195 2005 1445 1496 1611 1754 2151 1966 2497 2534 2931 2502 2296 2851 3747 1890 1480
89 145 124 89 340 167 37 41 105 176 608 518 185 388 209 122 157 191 253 345 285 592 550 895 1556 2086 1651 1735 2080 2997 1242 1158 717 851 973 1788 1590 1765 1760 1923 1989 2264 3268 3225 1898 2184 2925 3570 2318
146 132 166 142 69 175 114 32 98 163 461 647 401 504 290 118 153 198 189 243 293 486 702 795 1380 2405 1803 1646 2070 1514 2328 1590 1382 1559 2789 2084 2801 1910 1642 1924 1999 2255 2001 2818 2410 2162 2591 2638 2012
80 181 203 152 53 208 142 64 112 129 292 733 719 510 599 152 124 156 144 301 326 443 595 818 1523 2090 2232 1782 1770 1860 1526 1349 1855 1392 1310 1254 1145 1606 1732 1875 1946 2124 2253 2103 2133 2612 2160 2693 2966
210 225 218 183 149 126 118 146 171 119 130 260 747 631 562 234 152 117 195 261 383 501 569 808 1467 1745 1549 1605 1321 1379 1533 1384 1471 1526 1203 1695 1240 731 3020 2048 2051 1829 2126 1690 2125 2329 2422 2236 2229
178 182 215 118 126 60 324 282 105 151 82 150 84 337 477 156 197 124 153 221 400 458 583 784 1380 1849 1530 1267 2039 2173 1629 1450 1278 1633 1578 1658 1038 1325 2842 1871 2200 2742 1815 1710 1854 1611 1730 2171 1790
78 145 165 49 119 120 7 367 375 247 226 161 86 82 370 340 170 150 123 180 373 457 640 855 1177 1735 1649 1201 1241 1654 2089 1500 1552 3000 2175 1423 1482 1165 1706 1558 2468 2418 2690 2805 1720 1648 2520 1572 1840
83 236 158 12 19 128 274 37 22 338 644 390 254 175 171 310 405 247 140 186 309 452 591 858 1057 1488 1576 1109 964 918 1168 1544 1623 1822 1406 1716 2090 1647 1723 1550 1782 1786 1875 1809 2090 2397 2390 1802 1343
190 202 148 161 366 274 237 41 29 743 740 329 158 124 231 360 518 376 151 200 337 405 598 755 990 1271 1465 1091 759 824 879 1137 1666 1402 1738 1670 1688 1948 1894 1964 2010 1725 1708 1980 2216 2470 2183 1692 2288
8 38 183 379 143 8 2 101 445 802 841 527 121 29 109 6 582 412 254 221 370 581 720 763 906 1124 1265 1167 991 829 861 1015 961 1392 1559 1709 1880 1864 2026 2011 1924 1940 1812 1775 2208 1995 1967 1474 1921
CIN
-342 -162 -44 -0 -0 -5 -4 -0 -0 -0 -0 -0 -0 -9 -0 -0 -11 -1 -59 -74 -85 -66 -30 -21 -9 -4 -0 -3 -0 -2 -0 -0 -0 -0 -0 -0 -0 -0 -0 -0 -0 -0 -0 -0 -0 -0 -0 -0 -0
-112 -58 -36 -1 -35 -50 -0 -0 -0 -0 -0 -0 -0 -0 -0 -0 -25 -43 -30 -1 -16 -27 -4 -2 -14 -11 -0 -4 -0 -0 -0 -0 -0 -0 -0 -0 -0 -0 -0 -0 -0 -0 -0 -0 -0 -0 -0 -0 -0
-93 -76 -6 -0 -31 -17 -4 -0 -0 -6 -0 -0 -0 -0 -0 -0 -0 -4 -17 -0 -6 -9 -0 -12 -5 -5 -0 -1 -0 -0 -0 -0 -0 -0 -0 -0 -0 -0 -0 -0 -0 -0 -0 -0 -0 -0 -0 -0 -0
-8 -13 -16 -29 -0 -9 -1 -0 -0 -1 -0 -0 -0 -0 -9 -0 -0 -0 -0 -8 -31 -42 -0 -3 -0 -1 -0 -0 -1 -0 -0 -0 -0 -0 -0 -0 -0 -0 -0 -0 -0 -0 -0 -0 -0 -0 -0 -0 -0
-21 -6 -8 -0 -1 -0 -0 -0 -1 -2 -0 -2 -0 -4 -0 -1 -0 -0 -0 -0 -1 -3 -0 -0 -0 -0 -0 -0 -1 -1 -1 -0 -0 -0 -0 -0 -0 -0 -0 -0 -0 -0 -0 -0 -0 -0 -0 -5 -17
-0 -11 -69 -4 -0 -0 -2 -0 -1 -0 -0 -0 -0 -0 -0 -0 -0 -0 -0 -0 -14 -11 -9 -0 -0 -0 -0 -0 -0 -0 -0 -0 -0 -0 -0 -0 -0 -0 -0 -0 -0 -0 -0 -0 -0 -0 -0 -8 -60
-17 -10 -8 -20 -0 -0 -0 -0 -19 -1 -0 -0 -4 -0 -0 -0 -0 -0 -0 -0 -0 -7 -1 -0 -0 -0 -1 -0 -0 -0 -0 -0 -0 -0 -0 -0 -0 -0 -3 -6 -2 -3 -4 -2 -3 -5 -8 -11 -25
-1 -7 -0 -0 -0 -0 -0 -0 -0 -1 -0 -9 -0 -0 -0 -0 -0 -0 -0 -0 -0 -0 -0 -0 -0 -0 -0 -0 -0 -0 -0 -0 -0 -0 -1 -7 -13 -18 -22 -19 -21 -15 -12 -10 -15 -18 -29 -27 -26
-8 -7 -34 -1 -0 -0 -0 -0 -0 -2 -2 -9 -0 -0 -0 -0 -0 -0 -0 -0 -0 -0 -1 -10 -3 -0 -0 -0 -0 -0 -0 -2 -11 -10 -13 -22 -0 -0 -1 -10 -19 -23 -34 -33 -36 -43 -49 -62 -61
-0 -14 -36 -40 -0 -0 -0 -0 -2 -0 -8 -0 -0 -0 -0 -0 -0 -0 -0 -0 -0 -0 -9 -48 -0 -1 -0 -1 -0 -0 -3 -4 -0 -0 -0 -2 -6 -3 -1 -14 -28 -30 -34 -34 -39 -58 -74 -75 -9
-0 -2 -37 -111 -6 -0 -0 -0 -1 -0 -3 -0 -0 -0 -0 -0 -0 -0 -0 -0 -0 -4 -0 -24 -9 -0 -0 -0 -1 -0 -9 -0 -0 -4 -1 -0 -2 -20 -1 -9 -7 -10 -46 -16 -47 -40 -26 -5 -1
-0 -4 -48 -98 -20 -0 -0 -40 -33 -0 -11 -1 -0 -0 -0 -0 -0 -0 -0 -0 -0 -0 -0 -0 -0 -2 -14 -4 -20 -1 -8 -0 -0 -0 -0 -5 -0 -0 -0 -0 -1 -1 -0 -9 -2 -0 -1 -0 -8
-0 -0 -10 -46 -5 -2 -0 -4 -57 -0 -11 -3 -0 -0 -0 -0 -0 -0 -0 -0 -0 -0 -0 -0 -0 -0 -0 -0 -1 -1 -2 -0 -0 -0 -0 -0 -0 -0 -0 -2 -0 -0 -1 -0 -0 -0 -0 -15 -42
-0 -0 -6 -63 -20 -8 -0 -1 -0 -1 -0 -1 -0 -3 -0 -0 -0 -0 -0 -0 -0 -0 -0 -0 -0 -0 -0 -0 -0 -0 -0 -1 -0 -0 -0 -4 -0 -0 -0 -0 -0 -0 -1 -0 -1 -0 -0 -8 -61
-0 -0 -2 -29 -104 -0 -2 -0 -0 -0 -0 -34 -19 -0 -0 -0 -0 -0 -0 -0 -0 -0 -0 -0 -0 -0 -0 -0 -0 -0 -0 -0 -0 -11 -0 -0 -0 -1 -4 -0 -1 -0 -4 -4 -2 -3 -2 -15 -28
-0 -0 -10 -38 -39 -40 -15 -2 -0 -1 -0 -0 -0 -8 -0 -0 -0 -0 -3 -0 -0 -0 -0 -0 -0 -0 -0 -0 -0 -1 -0 -1 -2 -3 -0 -0 -0 -0 -10 -0 -0 -0 -0 -0 -0 -0 -0 -9 -10
-0 -7 -1 -0 -16 -24 -10 -0 -2 -0 -0 -1 -0 -11 -0 -0 -0 -0 -0 -0 -0 -0 -0 -0 -0 -5 -0 -0 -2 -6 -1 -36 -0 -0 -0 -0 -0 -0 -21 -25 -3 -4 -15 -2 -0 -1 -0 -1 -4
-0 -0 -0 -0 -0 -0 -3 -2 -67 -0 -2 -5 -6 -0 -0 -0 -0 -0 -0 -0 -0 -0 -0 -0 -0 -12 -0 -0 -0 -16 -4 -4 -0 -0 -0 -0 -0 -0 -7 -0 -0 -121 -89 -2 -2 -0 -1 -0 -0
-0 -31 -0 -0 -27 -4 -12 -54 -5 -0 -0 -28 -4 -5 -3 -1 -0 -1 -0 -0 -0 -0 -0 -0 -7 -0 -0 -0 -2 -1 -26 -2 -0 -1 -2 -0 -0 -0 -2 -29 -4 -55 -9 -1 -0 -2 -4 -1 -0
-0 -0 -2 -0 -8 -10 -16 -13 -29 -0 -3 -9 -2 -0 -5 -3 -0 -0 -0 -0 -0 -0 -0 -0 -0 -0 -0 -0 -17 -6 -53 -0 -2 -6 -0 -0 -0 -0 -0 -5 -2 -14 -23 -0 -0 -2 -9 -0 -0
-0 -68 -82 -0 -0 -2 -38 -28 -45 -4 -0 -0 -53 -7 -9 -0 -0 -0 -0 -0 -0 -0 -0 -0 -0 -0 -0 -12 -2 -2 -14 -3 -0 -5 -0 -0 -0 -0 -0 -0 -8 -4 -7 -5 -3 -1 -1 -46 -0
-0 -0 -2 -0 -0 -1 -17 -0 -9 -6 -0 -3 -4 -1 -3 -1 -0 -0 -0 -0 -0 -0 -0 -0 -0 -0 -0 -4 -17 -1 -0 -0 -1 -0 -0 -0 -0 -0 -0 -0 -0 -0 -3 -17 -0 -0 -1 -3 -17
-3 -17 -0 -0 -1 -32 -1 -3 -6 -8 -1 -0 -0 -0 -2 -0 -0 -0 -0 -3 -0 -0 -0 -0 -0 -0 -0 -0 -2 -0 -9 -16 -3 -0 -2 -0 -0 -0 -0 -0 -0 -0 -0 -0 -3 -2 -1 -4 -3
-0 -0 -0 -0 -0 -0 -18 -6 -9 -0 -4 -0 -0 -0 -3 -0 -1 -0 -0 -0 -1 -0 -0 -0 -0 -0 -0 -0 -0 -3 -1 -20 -14 -0 -0 -0 -0 -0 -0 -0 -0 -0 -0 -0 -0 -0 -0 -0 -3
-0 -0 -0 -0 -0 -0 -106 -1 -9 -7 -6 -0 -0 -0 -0 -1 -0 -0 -0 -0 -0 -0 -0 -0 -0 -0 -0 -0 -0 -0 -0 -0 -0 -0 -0 -26 -17 -0 -4 -4 -0 -0 -0 -2 -0 -0 -0 -0 -0
-0 -0 -0 -0 -0 -16 -16 -4 -7 -1 -27 -31 -22 -0 -0 -1 -0 -1 -0 -1 -0 -0 -2 -0 -0 -0 -0 -0 -0 -0 -0 -0 -0 -0 -1 -26 -7 -36 -2 -0 -0 -2 -0 -0 -0 -0 -0 -14 -0
-0 -0 -58 -3 -2 -0 -112 -1 -7 -2 -7 -8 -15 -23 -1 -0 -1 -0 -0 -0 -0 -1 -0 -0 -0 -0 -0 -0 -0 -0 -0 -0 -0 -6 -2 -0 -2 -34 -0 -0 -0 -3 -0 -2 -0 -0 -0 -0 -0
-13 -105 -3 -1 -7 -0 -0 -84 -11 -0 -0 -8 -15 -1 -1 -28 -6 -1 -0 -0 -0 -0 -0 -0 -0 -0 -0 -0 -0 -0 -0 -0 -0 -0 -0 -0 -6 -0 -9 -2 -0 -0 -0 -0 -0 -0 -5 -0 -0
-0 -4 -46 -5 -0 -5 -2 -31 -3 -0 -0 -17 -15 -13 -110 -37 -9 -7 -0 -1 -0 -0 -0 -0 -0 -0 -0 -0 -0 -0 -0 -0 -0 -0 -0 -0 -0 -0 -0 -0 -0 -0 -0 -0 -0 -1 -0 -0 -0
-5 -187 -41 -2 -49 -208 -0 -1 -0 -4 -3 -0 -34 -60 -52 -3 -4 -10 -8 -1 -1 -0 -0 -0 -0 -0 -0 -0 -0 -0 -0 -0 -0 -0 -0 -0 -0 -0 -0 -0 -0 -0 -0 -0 -0 -0 -0 -0 -3
Wind_Speed
12 15 8 6 5 7 4 12 12 8 15 13 12 9 12 10 9 15 17 16 17 12 8 6 4 6 8 11 9 13 11 13 14 14 14 14 14 14 15 15 15 15 16 14 14 15 16 15 15
13 5 6 4 4 8 10 10 10 14 13 12 7 20 14 20 20 21 18 17 20 17 12 11 6 6 9 10 10 12 12 13 13 13 13 14 14 15 15 15 15 14 14 12 14 15 14 14 13
16 5 10 4 3 4 10 13 10 14 8 10 9 16 17 23 20 19 21 19 14 9 15 11 9 9 10 10 12 11 12 13 13 12 12 12 14 14 14 13 15 14 14 13 13 13 12 13 12
7 5 7 3 11 12 14 13 13 10 9 10 18 17 20 16 19 21 21 19 17 5 18 13 11 10 13 11 12 12 12 12 12 13 12 12 14 13 14 13 14 12 13 13 15 13 11 12 12
9 9 7 4 11 13 13 11 8 8 10 10 21 20 15 16 23 18 19 15 13 16 17 15 11 10 11 11 12 13 12 13 12 12 12 12 13 13 12 11 12 12 12 13 13 13 12 11 10
8 5 1 1 13 10 10 7 5 11 8 6 18 16 15 18 18 14 16 14 18 18 12 15 12 11 13 11 12 12 13 12 11 11 11 11 12 12 12 11 10 11 11 12 11 12 11 10 8
11 2 1 7 13 12 6 11 1 8 11 10 19 19 15 18 15 13 15 13 13 18 12 15 15 13 12 12 12 12 12 12 12 12 12 11 11 11 11 10 9 9 10 10 10 9 8 7 6
9 3 8 9 9 15 7 11 2 7 14 15 19 13 17 18 14 12 12 11 9 11 10 13 15 14 13 13 12 12 12 13 11 12 12 12 11 11 11 12 9 7 7 8 7 7 5 5 7
8 3 3 6 12 13 9 11 7 7 10 7 8 16 19 18 15 13 13 11 8 10 8 18 12 11 10 12 11 12 12 13 13 10 9 13 10 10 11 12 8 7 7 6 5 4 6 7 8
7 4 6 9 3 14 11 9 11 12 11 10 12 21 21 17 15 14 12 12 11 11 17 3 10 12 11 7 10 10 11 10 8 6 8 5 10 10 11 9 8 7 7 7 7 8 12 12 10
3 1 6 9 13 9 15 7 3 11 12 13 14 19 20 18 14 14 14 12 13 9 11 14 9 9 11 10 10 6 8 7 7 7 3 6 7 4 7 8 8 8 11 8 9 9 9 4 3
6 7 7 2 9 5 9 13 6 7 12 11 15 19 18 15 14 13 14 13 12 12 10 11 11 7 7 10 5 6 5 8 8 6 7 4 4 3 4 5 5 5 5 4 7 4 1 3 4
9 9 7 3 4 5 4 15 5 9 9 17 18 18 17 15 13 12 12 12 12 12 10 13 11 5 5 3 5 7 6 6 11 9 2 2 5 2 4 0 2 4 7 6 4 4 3 3 5
8 10 9 5 6 2 8 9 11 10 15 16 16 16 15 13 11 11 11 12 12 11 11 13 12 10 8 8 5 5 4 8 7 7 6 0 2 2 6 5 7 4 1 2 4 2 4 3 6
12 11 8 4 6 5 11 7 10 13 15 16 16 15 13 12 13 11 12 12 12 11 10 11 12 11 8 8 7 6 6 8 6 6 5 2 3 2 4 3 4 5 4 2 2 5 2 2 6
11 10 7 11 12 7 7 9 10 16 16 17 16 14 15 10 14 14 11 14 13 13 11 11 10 13 11 10 7 3 3 3 4 6 7 5 4 0 7 7 4 7 7 7 5 6 4 3 5
12 7 10 9 9 6 8 8 17 17 17 15 14 15 15 13 12 13 13 11 14 13 11 10 10 9 8 8 5 3 4 6 4 5 6 3 4 2 6 4 2 5 2 4 5 5 3 2 2
2 15 9 6 8 7 11 16 6 17 14 12 14 15 15 13 14 13 14 13 13 14 12 11 9 8 7 7 3 4 5 3 5 3 7 5 5 2 7 2 4 1 7 8 7 5 2 3 2
6 4 12 6 6 3 2 14 8 7 13 9 14 15 16 15 14 14 14 15 14 14 13 12 5 10 6 8 6 5 4 3 4 4 5 4 2 3 5 6 6 5 8 10 2 5 4 2 2
7 8 9 6 5 3 1 6 8 18 14 21 15 14 10 16 17 16 14 14 16 15 14 12 12 9 8 6 1 2 3 7 5 4 6 5 4 2 3 5 4 6 1 4 4 6 6 3 1
10 7 11 3 7 2 4 4 3 17 12 11 10 10 19 16 18 18 15 16 14 15 14 13 12 11 9 5 4 4 4 2 2 6 7 6 4 4 3 1 4 6 6 4 1 3 7 3 3
13 1 4 5 9 6 8 2 9 15 15 15 19 16 18 18 17 18 17 14 15 16 14 13 13 10 10 9 6 6 6 6 6 3 2 6 5 4 4 3 1 2 7 6 2 1 7 6 7
2 6 11 6 10 13 11 3 7 15 12 19 21 21 19 19 18 19 17 16 16 15 15 14 13 11 10 9 6 6 7 4 6 3 9 5 7 6 5 3 3 3 7 2 3 5 4 7 6
13 7 9 11 13 12 13 11 5 10 16 22 21 19 20 19 18 17 18 18 15 16 14 14 14 11 10 10 9 9 8 5 2 3 3 6 6 9 6 5 4 3 5 3 5 3 5 5 6
10 15 13 11 7 3 10 14 5 16 7 12 19 21 20 17 18 18 18 17 16 17 15 14 15 14 13 13 12 11 10 5 5 4 6 1 8 5 11 6 3 6 5 5 6 2 6 5 6
15 19 9 4 4 5 19 9 5 8 5 11 11 20 18 17 17 19 18 16 16 15 15 14 16 15 14 13 12 10 10 7 8 9 6 5 7 4 5 6 6 6 6 7 6 6 8 3 5
8 12 25 11 1 12 5 17 11 4 10 5 13 20 23 22 17 18 18 16 14 14 15 14 14 14 14 15 12 12 10 10 8 5 6 7 4 7 7 2 4 4 6 5 5 8 7 5 6
5 17 10 8 4 11 5 3 5 9 9 2 8 15 17 18 20 17 18 17 15 15 15 15 14 14 13 13 13 12 13 12 11 7 5 5 3 2 3 5 7 8 8 8 6 8 7 6 6
8 11 16 12 4 2 1 3 10 9 8 7 6 2 9 20 23 10 16 16 16 15 15 16 14 14 13 12 12 12 13 14 12 10 8 8 8 6 6 7 7 8 7 7 7 9 9 7 8
6 9 20 10 9 6 9 6 10 8 9 7 9 6 8 9 4 14 11 16 14 14 12 15 14 14 13 12 11 12 11 11 11 10 10 10 9 8 8 7 7 8 8 8 7 9 10 6 7
Wind_Direction
247 227 250 248 258 110 67 93 98 96 72 69 75 122 79 39 152 111 106 122 126 138 164 151 136 119 111 110 102 104 103 103 100 100 96 98 92 92 95 97 97 94 91 96 97 99 104 101 98
248 275 242 322 95 86 88 103 88 81 86 94 81 96 73 77 91 115 128 141 143 151 168 134 133 120 107 110 116 103 98 96 97 99 101 99 98 95 98 96 95 97 93 96 99 95 97 96 97
250 284 273 243 284 32 88 92 96 94 113 74 81 39 84 105 123 126 133 152 142 127 128 113 129 128 124 120 113 105 104 106 106 107 105 105 95 96 98 103 101 92 89 94 107 106 99 102 93
235 219 224 285 64 76 93 89 105 129 80 99 101 94 98 103 110 120 131 139 151 48 98 116 121 123 116 124 103 107 109 114 112 99 104 101 105 100 104 101 98 97 91 85 99 101 102 98 94
238 254 272 95 94 90 93 109 136 137 104 88 106 110 98 99 111 127 133 120 133 166 122 115 116 128 118 114 109 110 112 110 104 114 105 103 98 106 105 105 101 97 92 89 99 96 99 95 98
240 291 64 49 102 95 100 115 122 78 81 108 115 129 104 116 136 143 127 147 143 112 140 124 120 125 123 118 115 109 108 105 108 106 105 105 103 102 106 109 107 101 95 92 97 103 94 100 108
208 14 62 270 115 113 91 91 266 117 145 133 136 116 127 142 138 141 136 158 148 125 129 135 131 127 117 120 110 109 106 109 105 112 108 109 108 109 110 108 106 103 102 96 98 102 99 115 120
300 126 179 210 130 117 132 70 82 108 82 126 134 130 153 135 146 144 135 113 121 107 128 124 141 131 141 129 118 117 115 112 115 121 125 128 133 134 131 127 106 110 104 102 103 110 136 128 147
252 3 236 144 123 120 138 119 65 72 141 168 84 147 135 141 154 157 126 123 150 119 149 122 145 120 110 126 122 126 128 130 130 143 167 184 142 141 143 74 107 109 118 127 129 170 200 192 184
290 178 351 9 142 124 122 95 133 155 129 123 129 111 129 157 163 148 151 148 146 146 108 175 126 136 141 115 152 148 150 165 135 127 173 193 55 70 99 118 141 142 158 165 178 217 234 217 197
334 76 119 345 319 123 107 142 175 133 143 150 134 133 151 167 168 150 155 158 136 123 130 111 123 139 142 142 167 179 172 130 113 172 207 114 143 163 198 144 169 155 192 190 195 210 229 38 300
92 98 121 318 294 122 145 102 312 28 92 129 140 145 158 170 167 163 147 146 138 132 139 126 142 103 207 162 219 147 132 136 156 103 113 185 114 93 325 59 105 186 109 178 218 94 95 117 225
114 103 110 95 274 346 114 122 186 99 118 132 139 157 168 173 160 156 131 130 135 149 156 129 128 117 92 211 127 95 125 164 102 171 171 67 98 74 111 118 51 54 190 149 165 141 102 159 150
104 125 111 68 347 152 239 150 169 133 136 138 148 157 166 160 160 137 144 151 151 149 152 124 141 132 150 103 99 149 196 107 170 136 117 173 12 292 136 180 157 177 105 93 132 354 170 162 114
119 139 142 97 340 318 319 185 167 147 145 147 165 164 150 160 140 157 158 151 155 154 144 146 141 148 151 133 162 190 151 161 141 99 157 154 217 176 317 90 248 131 108 219 183 237 270 118 116
195 148 167 172 194 245 272 221 141 158 158 161 168 166 148 161 153 156 161 164 147 144 150 172 149 149 162 141 185 161 113 145 137 132 153 162 122 247 246 208 178 162 199 185 139 213 197 168 160
190 170 197 145 196 213 236 212 158 175 173 171 167 165 155 173 148 143 161 162 145 135 157 180 140 136 152 145 161 90 125 251 146 129 137 169 151 169 293 297 133 268 170 142 167 146 214 103 183
129 302 130 161 124 214 233 244 313 170 179 182 176 167 163 181 158 160 165 148 160 145 156 172 165 126 150 176 150 144 198 188 150 152 100 168 130 168 276 258 307 163 254 98 47 359 29 269 262
242 270 78 72 102 211 261 278 246 184 186 172 165 189 173 171 160 157 164 154 154 155 161 164 120 146 169 174 191 159 199 179 170 156 111 127 190 117 287 271 286 148 121 50 108 194 213 242 72
291 268 124 131 145 209 148 268 306 261 201 162 183 201 174 174 165 162 167 166 163 164 167 173 150 153 212 201 253 87 351 180 174 149 152 226 141 213 200 329 325 38 355 78 0 339 308 206 245
235 79 300 88 149 126 132 278 310 257 203 179 189 213 181 204 172 163 177 167 172 164 174 176 185 176 202 274 201 147 132 157 173 130 177 180 200 209 277 254 334 349 307 118 344 352 302 312 122
263 6 182 285 169 242 179 18 239 220 201 200 199 215 230 198 182 167 176 182 177 162 178 175 179 174 195 220 247 155 199 199 182 185 134 130 227 220 197 236 258 290 325 14 269 141 319 334 317
133 300 261 260 262 131 172 151 282 177 211 200 201 206 215 205 186 170 183 182 177 167 172 174 182 184 205 193 244 189 236 103 190 173 122 261 155 258 232 175 226 260 266 71 324 320 342 308 315
278 236 239 230 247 242 157 217 191 210 209 192 203 200 224 196 179 182 179 172 185 170 174 172 172 185 197 183 193 224 268 212 18 205 165 212 204 180 218 203 218 293 296 252 262 282 269 297 328
220 234 241 215 228 306 161 203 166 222 186 202 189 212 208 218 189 184 180 180 184 172 178 173 171 188 194 188 201 204 221 237 266 253 209 208 287 211 149 183 195 239 220 278 301 273 300 285 285
204 243 269 283 227 180 273 148 209 117 125 163 206 224 197 199 232 189 186 187 182 180 175 189 172 190 194 201 199 198 207 221 224 201 258 326 174 298 98 168 220 217 242 246 234 252 238 298 226
238 214 233 253 255 293 121 119 75 124 136 190 187 227 212 198 207 215 185 188 180 190 179 191 183 189 197 199 201 203 206 220 229 288 201 197 265 176 189 248 249 263 254 255 261 249 267 273 251
121 332 260 225 195 241 149 18 86 25 76 27 292 227 214 173 199 210 187 186 183 193 183 190 193 187 198 206 197 204 209 213 229 251 223 265 268 189 314 299 273 234 241 248 271 260 253 232 262
196 167 239 239 59 13 143 315 59 74 67 70 51 51 336 159 223 200 198 184 181 194 190 184 194 191 195 199 199 207 204 207 212 224 213 231 249 245 233 235 247 252 242 230 241 261 286 282 258
358 340 323 344 6 96 298 138 67 44 77 58 90 47 113 305 262 195 200 192 188 190 213 183 189 195 194 195 196 200 214 218 212 214 224 211 223 232 238 244 233 239 250 262 231 240 279 250 277